Volver al catálogo

GAOFEN 7

ActivoCienciaSSO
NORAD 44703·PAYLOAD·🇨🇳 China

Lanzado Nov 3, 2019 desde Taiyuan Satellite Launch Center

Loading…

Próximos Pases (próximas 24 horas)

TLE

ActualizadoSource: Space-Track

Época: Sep 14, 2026, 14:15 UTC

1 44703U 19072A   26257.59376359  .00003191  00000-0  14520-3 0  9995
2 44703  97.5628 318.6159 0020113  95.1822 265.1709 15.21282169381238

Sigue GAOFEN 7 en tiempo real con AllMySat

Download on the App Store